Wind_Speed
35 35 34 33 32 32 32 32 33 33 34 35 36 38 39 41 43 44 45 46 46 47 46 45 45 45 44 43 43 43 43 42 42 42 41 41 41 41 40 40 40 40 40 41 41 41 41 41 42 42 43 42 42 43 44 45 46 46 47 47 48 48 48 47 47 42 37 38 39 37 37 38 37 36 35 34 35 38 39 41 41 40 39 39 39
37 34 33 32 31 31 31 31 32 32 33 35 36 38 40 42 43 44 45 46 47 46 46 46 46 45 44 44 44 44 43 43 42 42 41 41 41 40 40 40 40 40 40 40 41 41 41 42 42 43 44 44 44 44 45 45 46 46 47 48 48 49 50 49 49 46 41 39 40 39 38 39 38 37 37 35 35 37 39 40 41 41 41 40 38
34 32 31 30 30 30 31 31 31 32 34 35 37 39 41 42 44 45 46 47 46 46 46 46 46 45 44 44 44 44 43 42 42 41 40 40 39 39 40 40 40 41 41 42 42 43 43 44 44 45 45 45 46 46 46 47 47 47 48 49 49 49 50 51 51 49 45 41 41 42 40 40 40 39 39 37 36 37 38 39 41 42 42 41 39
31 30 29 28 29 29 30 31 32 33 34 36 38 40 41 43 44 45 46 46 46 46 46 45 45 45 45 45 44 44 43 42 41 40 40 40 40 40 41 42 43 43 44 45 45 46 46 47 47 48 48 48 48 48 49 49 49 49 49 50 50 50 51 52 52 51 49 44 42 43 43 42 41 41 40 40 38 37 37 38 40 42 43 43 41
30 29 28 28 28 29 30 31 32 34 35 37 39 40 42 43 44 44 45 45 45 45 45 45 45 45 45 45 44 43 42 41 41 41 41 42 42 43 44 44 45 45 46 46 47 47 48 48 48 49 50 50 51 51 51 52 52 52 52 51 52 52 52 52 53 53 52 49 44 43 44 44 43 42 42 42 40 39 38 37 38 41 43 44 44
28 28 28 28 28 29 30 32 33 34 36 38 39 41 42 42 43 43 44 44 45 45 45 45 45 45 44 44 43 42 41 41 41 42 43 43 44 44 45 45 45 46 46 46 47 47 48 48 48 49 50 50 51 51 52 53 54 54 55 54 54 54 54 54 54 54 54 52 48 45 44 45 45 43 43 44 43 41 39 38 37 39 42 44 45
27 27 27 28 29 30 31 33 34 35 36 38 39 40 40 41 42 42 43 43 44 44 44 44 44 44 43 42 42 41 42 42 43 44 44 44 44 44 44 45 45 45 46 46 47 47 48 49 49 49 50 50 51 52 52 53 54 55 56 57 57 57 56 56 55 55 55 54 52 49 46 45 46 45 44 45 45 43 41 40 38 38 41 43 45
28 28 28 29 30 31 32 33 34 35 36 37 38 39 39 40 41 41 42 42 43 43 43 43 43 43 42 41 42 42 42 43 43 43 44 44 44 44 44 45 45 46 46 47 48 48 49 50 50 51 51 52 52 53 54 54 54 55 56 57 59 59 59 58 58 57 57 56 54 52 49 47 47 47 45 45 46 44 42 42 40 38 39 42 45
29 29 29 30 30 31 32 33 34 35 36 37 37 38 38 39 40 40 41 41 42 42 42 42 42 41 41 41 42 42 42 42 43 43 43 44 44 45 45 46 46 46 47 47 48 49 49 50 51 51 52 53 53 54 55 56 57 57 57 57 58 59 60 60 60 59 59 58 56 55 53 50 48 48 48 46 46 45 44 43 41 39 39 41 44
30 30 30 30 30 31 32 33 34 35 35 36 36 37 38 38 39 40 40 40 41 41 41 41 40 41 41 41 41 41 42 42 43 44 44 45 45 46 46 46 47 47 47 48 48 48 49 50 50 51 52 53 53 54 55 56 58 59 59 60 60 60 60 61 61 61 61 60 59 57 55 53 51 50 50 48 47 46 45 44 43 41 40 40 43
31 31 30 30 31 31 32 33 33 34 34 35 36 37 37 38 38 39 39 39 40 39 39 39 40 40 40 40 40 41 41 42 43 44 45 45 46 46 46 47 47 47 47 48 48 49 49 50 51 52 52 53 54 54 55 56 57 59 60 62 63 63 62 62 62 62 62 62 61 59 57 55 53 52 51 50 49 48 46 45 44 43 41 40 41
32 32 31 31 31 31 31 32 32 33 34 35 35 36 37 37 38 38 38 38 38 38 38 39 39 38 38 39 39 40 41 42 43 44 44 45 45 46 47 47 47 48 48 49 49 50 50 51 52 52 53 54 55 55 56 57 58 59 60 61 63 65 65 65 64 63 63 63 63 62 60 58 55 53 53 52 51 50 48 47 45 44 42 40 39
31 31 31 31 31 31 31 31 32 33 34 34 35 36 36 36 37 37 37 37 37 37 37 37 37 37 37 38 39 40 41 42 42 43 44 44 45 45 46 47 47 48 49 49 49 50 50 51 52 53 54 56 57 57 58 59 60 61 62 62 63 64 66 67 67 66 65 64 64 62 61 61 58 54 54 54 53 52 50 48 46 44 43 41 39
30 30 30 30 30 30 30 31 32 33 33 34 34 35 36 36 37 36 36 36 36 36 36 35 35 36 37 38 39 40 41 41 42 43 44 44 45 46 46 47 47 48 49 49 49 50 51 51 53 54 56 57 59 59 60 61 61 62 62 63 64 65 65 67 68 68 67 66 65 63 61 62 61 56 55 55 54 53 52 49 47 45 44 43 41
29 28 28 28 29 30 30 31 32 32 33 33 34 35 36 35 35 35 34 35 34 34 34 34 35 36 37 38 38 39 40 41 42 43 43 44 45 46 47 47 48 48 49 49 50 50 51 53 55 56 58 59 61 62 63 63 64 64 63 64 64 65 65 66 67 68 68 68 67 65 62 61 62 59 56 56 55 54 53 51 48 46 46 44 42
27 27 27 28 29 30 30 31 31 32 32 33 34 35 34 34 33 33 33 33 33 32 33 34 35 36 37 37 38 39 39 40 41 42 43 44 45 46 47 48 48 49 50 50 51 52 53 55 57 59 60 62 63 65 65 66 65 65 64 63 63 64 64 65 66 67 68 68 68 67 64 61 61 60 58 57 57 55 54 53 50 47 46 45 42
26 27 27 28 29 30 30 31 32 32 33 34 34 33 32 32 32 32 32 32 31 31 32 34 35 35 36 36 37 38 39 40 41 42 43 44 46 47 47 48 49 49 50 50 52 53 55 57 59 60 62 64 66 66 65 64 62 61 60 59 59 59 60 62 63 65 66 67 67 67 66 62 60 60 59 58 57 57 56 54 50 48 47 45 43
26 27 28 29 29 30 31 32 32 33 33 33 32 31 31 31 31 31 31 30 30 31 32 33 34 34 35 36 37 37 39 40 41 42 44 45 46 47 47 48 48 49 49 50 52 54 56 58 59 61 64 66 66 64 61 58 55 54 54 53 52 52 53 56 58 60 63 65 66 66 66 63 60 59 59 59 58 58 57 53 50 49 48 46 43
27 28 28 29 30 31 32 32 32 32 32 31 30 30 30 30 30 30 29 29 30 31 32 33 33 34 34 35 36 37 39 40 42 43 44 45 46 47 47 48 48 48 49 50 52 54 56 58 60 63 65 64 61 58 55 52 50 49 48 47 47 46 45 47 49 53 57 61 64 65 65 63 60 58 58 59 59 58 56 53 51 49 48 46 44
27 28 29 30 31 31 32 32 32 31 31 30 30 29 29 29 28 28 28 29 30 31 32 32 32 33 34 35 36 37 39 41 42 44 45 46 46 47 47 47 48 48 49 50 52 54 56 58 61 64 64 60 56 53 50 47 46 44 43 42 42 40 38 37 39 43 48 54 59 62 63 62 59 58 57 58 58 57 56 53 51 48 47 46 45
28 28 29 30 31 31 31 31 31 30 30 29 29 28 28 27 26 27 28 29 30 30 31 31 31 32 33 34 36 37 39 41 43 44 45 45 46 46 47 47 48 48 49 51 53 55 57 59 62 64 61 57 53 49 44 41 40 40 39 37 36 34 31 28 29 34 40 46 52 57 61 60 58 56 56 57 57 57 55 53 50 47 47 47 46
28 29 29 30 30 30 30 30 30 30 29 28 27 26 26 25 26 27 29 29 30 30 30 30 30 31 33 34 36 38 40 42 43 44 44 45 46 46 47 47 47 48 49 51 53 55 57 60 63 63 59 55 52 45 38 35 33 33 33 31 29 28 26 23 22 26 31 37 44 50 55 57 56 55 55 55 57 56 54 51 49 47 46 46 45
28 29 29 28 29 29 30 30 29 28 27 26 25 25 24 25 27 28 29 29 29 29 29 29 30 31 32 34 36 38 40 41 42 43 43 44 45 46 46 46 47 47 49 50 53 56 57 61 63 62 58 56 51 43 36 32 28 25 25 24 22 22 22 20 19 20 24 29 36 42 49 53 54 53 53 54 55 55 53 51 50 47 46 45 44
28 28 28 28 29 29 28 27 26 25 25 24 24 24 25 26 27 28 28 28 28 28 28 28 29 30 32 34 36 38 40 40 41 42 42 44 45 45 46 46 46 47 48 51 53 55 58 61 63 61 58 56 50 42 37 33 27 22 19 17 18 20 20 18 17 17 18 22 28 34 40 46 50 50 51 52 53 53 52 51 50 49 47 45 43
27 27 27 28 28 27 26 25 24 24 23 23 23 24 26 27 27 27 27 27 27 26 27 27 28 29 31 33 35 37 38 39 39 40 41 43 44 44 44 45 45 46 48 51 54 55 58 61 62 60 58 56 49 42 37 34 29 23 17 14 17 22 22 19 16 14 12 13 20 26 30 36 43 46 48 50 51 51 50 49 49 48 46 43 42
26 26 27 26 26 25 24 23 22 22 22 22 23 25 26 26 26 26 26 26 25 25 26 27 28 29 31 32 34 36 37 37 38 39 40 41 42 43 43 44 44 46 47 50 53 55 57 61 61 59 58 56 49 42 38 35 31 27 19 13 17 23 23 18 14 12 11 10 14 19 22 27 35 43 47 49 48 47 47 47 46 45 43 41 42
26 25 25 24 23 23 22 22 21 21 21 22 24 25 25 25 25 25 24 24 24 24 26 27 27 29 30 32 34 35 36 35 36 37 38 39 41 42 43 43 44 45 47 49 52 55 57 60 61 58 57 55 48 41 37 34 31 28 21 12 15 23 23 16 13 13 10 9 11 16 20 23 28 36 43 47 46 43 43 44 43 43 43 42 42
24 24 23 22 22 21 21 21 20 21 21 23 24 24 24 24 24 23 22 22 23 24 25 26 27 28 29 31 33 34 35 34 35 35 36 38 40 42 43 43 44 45 46 48 51 54 56 59 59 56 54 53 47 39 35 32 29 26 23 15 12 19 22 17 13 14 10 7 9 13 19 22 25 31 38 42 42 40 38 38 39 41 43 43 42
23 22 22 21 20 20 20 20 20 21 22 23 23 23 23 23 22 21 21 21 22 24 24 25 26 27 28 30 32 33 33 33 34 34 36 38 40 42 43 44 44 45 46 48 50 53 55 56 57 55 53 51 48 39 33 31 27 22 22 20 15 14 16 13 10 11 9 7 9 10 15 19 22 28 35 37 38 38 36 36 37 40 42 42 41
21 21 21 20 19 19 19 19 20 21 22 22 22 21 21 21 20 19 20 21 22 23 24 25 26 27 29 30 31 32 33 33 33 35 36 38 40 42 43 44 44 45 45 47 49 51 52 54 55 55 53 51 50 43 34 30 27 21 18 19 18 16 15 10 8 10 10 5 8 8 12 17 20 24 30 33 34 36 38 37 34 32 35 39 39
20 20 20 19 18 18 19 19 20 21 21 20 20 20 20 19 18 18 19 21 22 23 24 25 26 27 29 30 31 32 32 33 34 34 36 37 39 41 43 43 44 44 44 45 47 49 51 52 53 55 53 51 50 47 39 32 28 23 17 14 15 19 18 9 7 7 12 8 3 5 6 11 18 23 26 29 31 34 38 39 35 29 28 33 34
20 19 18 17 17 18 19 19 20 20 20 20 19 19 18 17 17 18 19 21 22 22 23 24 26 27 29 30 30 31 31 32 33 34 35 36 38 40 42 43 44 44 44 45 45 46 48 50 51 53 53 52 50 49 44 36 30 26 20 14 12 16 20 15 5 10 9 9 3 4 5 6 12 19 23 25 29 31 33 35 35 31 28 29 31
18 17 17 17 17 18 18 19 19 19 19 19 18 17 16 15 16 18 19 21 21 22 23 24 26 27 28 28 29 30 30 31 32 33 34 36 37 39 41 42 43 44 44 43 43 44 46 48 50 51 53 52 51 50 47 42 35 29 24 18 12 12 16 19 14 6 10 8 5 1 5 5 9 16 20 23 26 28 29 30 31 31 29 28 29
17 16 16 16 17 18 18 18 18 18 18 17 17 16 15 15 16 18 19 20 21 22 23 24 26 27 27 28 28 29 29 30 31 32 33 35 36 38 40 42 44 44 44 43 42 43 44 46 48 50 51 52 51 50 48 46 40 33 27 22 17 13 13 16 18 13 7 9 8 4 1 2 6 12 17 21 23 25 26 27 27 27 28 28 29
16 16 16 16 16 17 17 17 17 17 17 16 15 15 15 15 16 17 18 19 20 21 23 25 26 27 27 28 28 28 29 29 30 31 32 33 35 37 39 41 42 43 43 43 43 43 43 44 46 48 49 51 51 50 49 48 45 40 33 26 21 17 14 13 14 15 13 8 7 7 6 2 2 6 12 19 22 23 24 23 21 21 22 24 25
15 15 15 15 16 16 16 16 16 16 15 14 14 14 14 14 15 16 17 18 20 21 23 25 26 27 27 27 28 28 28 28 29 30 31 32 34 36 37 39 41 42 43 43 43 43 42 43 44 46 47 48 50 50 49 48 47 45 41 35 27 22 17 13 11 12 13 13 9 6 8 7 4 4 8 15 21 25 26 25 21 18 17 17 17
14 14 14 14 14 15 15 16 15 15 14 13 13 12 13 14 15 15 16 18 19 21 23 24 26 27 27 27 28 28 28 29 29 30 31 32 34 35 36 38 39 41 42 43 43 43 42 42 42 44 45 46 48 49 49 49 48 46 45 42 37 30 24 19 14 12 12 12 10 8 7 8 8 7 7 11 16 22 26 28 26 22 19 17 14
13 13 13 13 13 14 14 15 14 13 12 12 12 11 12 13 14 15 16 17 19 21 23 24 26 27 27 28 28 29 29 30 30 30 31 33 34 35 35 36 38 39 41 42 43 42 42 41 41 42 43 44 45 46 47 48 48 47 45 44 42 38 32 26 22 17 14 13 11 9 7 6 6 7 7 10 13 16 20 24 26 27 26 24 21
12 12 12 12 12 13 13 13 13 12 11 10 10 10 11 13 14 15 16 17 19 20 22 24 25 27 27 28 29 29 30 30 31 31 31 32 33 34 35 36 37 38 39 41 42 42 42 41 41 40 41 42 43 44 45 46 47 47 46 44 42 41 38 33 27 23 18 15 13 11 9 7 6 6 6 6 9 12 15 17 20 22 24 26 26
11 11 11 10 11 12 12 12 11 10 10 9 9 10 11 13 14 15 17 18 19 20 22 24 25 26 27 28 29 30 30 30 31 31 31 31 32 33 34 35 36 37 38 39 40 41 41 41 40 40 40 40 41 42 43 44 45 45 46 45 44 42 40 39 35 30 25 21 17 14 12 10 8 7 6 6 6 7 8 11 13 16 18 21 23
11 10 10 9 10 11 11 11 10 9 9 9 9 10 12 13 14 16 17 18 20 21 22 23 25 26 27 28 29 30 31 31 31 31 31 31 32 33 33 34 35 36 37 38 39 40 41 41 40 40 39 39 40 40 41 42 42 43 44 44 44 43 42 41 39 37 33 29 24 19 16 12 10 9 8 8 7 7 6 7 8 9 12 14 17
10 9 8 8 9 10 10 9 8 8 8 9 10 11 12 13 15 16 17 19 20 21 22 24 25 26 27 28 29 30 31 32 32 32 32 32 32 33 33 34 34 35 36 37 38 39 39 40 40 40 39 38 38 38 39 40 40 41 41 42 42 43 42 41 40 39 37 35 31 27 22 18 14 11 9 9 9 9 9 8 7 7 8 9 11
9 8 8 8 8 9 9 8 8 8 9 10 11 11 12 14 15 16 18 19 20 22 23 24 25 26 27 28 29 30 31 32 32 33 33 33 33 33 33 34 34 35 35 36 37 37 38 39 39 39 39 38 38 37 37 37 38 39 39 40 40 41 41 41 40 39 37 36 35 33 30 26 21 17 14 11 9 9 10 10 10 10 9 9 9
9 8 7 7 8 8 9 9 9 9 10 11 12 13 14 15 16 17 18 19 21 22 23 24 25 27 28 29 29 30 31 32 32 33 33 33 33 33 34 34 34 35 35 35 36 36 37 38 39 39 39 38 38 37 36 36 36 36 37 38 38 39 39 39 39 38 38 37 36 34 33 31 29 25 21 17 14 11 10 10 10 11 12 12 12
10 9 8 8 8 9 10 10 11 11 12 13 14 15 15 16 17 18 19 20 21 22 23 24 26 27 28 29 30 30 31 32 32 33 33 34 34 33 34 34 34 34 35 35 35 35 36 36 37 38 38 38 38 37 36 35 35 34 34 35 35 36 37 37 37 37 37 37 36 35 34 32 31 29 27 24 21 17 14 12 10 10 11 12 13
11 10 10 9 10 10 11 12 13 14 14 15 16 17 17 18 19 19 20 21 21 22 23 25 26 27 28 29 30 31 31 32 32 33 33 33 34 34 34 34 34 34 34 34 34 35 35 35 36 36 37 37 37 37 37 36 35 34 33 33 33 34 35 35 36 36 36 35 35 35 34 33 32 31 29 28 26 24 21 18 15 12 11 11 11
13 12 12 12 12 13 13 14 15 16 17 18 18 19 19 20 20 21 22 22 23 23 24 25 26 27 28 29 30 31 32 32 33 33 33 33 33 33 33 34 34 34 34 34 34 34 34 34 34 35 35 36 36 36 36 36 35 35 34 33 32 32 33 33 34 34 34 34 34 34 33 33 33 32 31 29 28 26 25 23 21 18 16 13 11
15 14 14 14 15 15 16 17 18 19 19 20 21 21 21 22 22 22 23 24 24 25 25 26 27 28 29 30 30 31 32 33 33 33 33 33 33 33 33 33 33 34 33 34 34 34 34 34 33 34 34 34 35 35 35 35 35 35 34 33 32 32 31 31 32 32 33 33 33 33 32 32 31 31 31 30 29 28 26 25 23 22 20 18 16
17 17 17 17 17 18 19 19 20 21 22 22 23 23 24 24 24 25 25 25 26 27 28 28 28 29 29 30 31 31 32 33 33 33 33 33 33 33 33 33 33 33 33 33 33 33 34 33 33 33 33 33 33 34 34 34 34 34 34 33 32 32 31 31 30 31 31 31 32 32 31 31 30 30 29 29 28 28 27 26 25 24 22 21 20
19 19 19 20 20 21 21 22 22 23 24 24 25 25 26 26 27 27 28 28 28 29 30 31 31 31 31 31 31 31 32 32 33 33 33 33 33 33 33 33 33 33 33 33 33 33 33 33 33 33 32 32 32 32 33 33 33 33 33 33 32 32 31 30 30 30 30 30 30 30 30 30 30 29 29 28 27 27 27 26 26 25 24 22 21
21 22 22 23 23 23 24 24 24 25 25 26 27 27 28 28 29 30 30 30 31 31 32 32 32 32 32 32 32 32 32 32 33 33 33 33 33 33 33 33 33 33 33 33 33 33 33 33 33 33 33 32 32 31 32 32 32 32 32 32 32 32 31 31 30 30 29 29 29 29 29 29 29 29 28 28 27 26 26 25 25 25 24 23 23
Wind_Direction
290 289 285 282 282 280 278 278 279 280 281 281 280 281 282 285 287 290 292 295 297 299 301 302 303 304 304 305 306 306 305 304 303 302 301 300 299 298 298 297 296 294 293 292 291 290 289 287 286 284 283 281 280 278 276 275 275 274 274 274 274 274 274 274 274 272 269 268 268 267 268 270 272 273 274 273 267 261 258 255 252 248 246 247 246
288 285 282 281 279 277 276 277 279 280 280 281 281 282 283 285 287 290 292 295 297 299 300 302 303 304 305 305 305 305 304 303 302 302 301 301 300 299 298 297 296 295 294 293 293 291 290 289 287 285 284 282 280 278 276 275 273 273 272 272 272 272 273 273 273 272 269 267 267 266 266 267 269 269 269 270 269 265 260 257 253 249 246 245 246
286 283 281 280 278 276 276 277 278 280 280 281 281 282 283 285 288 290 293 296 298 299 300 302 303 304 305 305 304 304 303 303 302 302 301 301 300 299 299 298 297 296 295 295 294 293 291 290 289 287 286 284 283 281 279 276 274 273 271 271 270 270 271 271 271 271 269 266 266 266 265 264 266 267 267 267 268 267 263 258 254 249 246 244 243
285 283 282 281 278 277 277 277 279 280 280 281 282 283 284 286 289 292 295 297 298 299 301 302 303 304 304 304 304 304 304 303 303 303 303 302 302 301 300 299 298 297 296 295 294 293 292 290 289 288 286 285 283 282 281 279 277 275 272 271 270 268 268 269 269 270 269 266 264 264 265 264 263 264 265 265 265 266 265 261 256 251 246 243 241
286 284 283 282 280 279 278 278 279 279 280 281 282 283 286 289 291 294 296 297 299 300 302 303 303 303 304 304 304 304 304 304 304 304 303 303 302 301 300 299 298 297 296 295 294 293 291 290 289 287 285 284 283 281 280 279 278 276 275 272 271 269 267 267 267 267 268 266 264 262 262 263 262 262 263 263 263 264 265 263 258 254 248 243 240
287 285 283 282 281 279 279 278 278 279 280 281 283 286 288 291 293 295 296 298 300 301 302 302 303 304 304 305 304 304 304 304 304 304 303 302 302 301 300 299 298 297 296 295 294 293 292 290 289 288 286 285 283 281 280 278 277 276 275 273 272 270 268 267 266 265 265 265 263 260 259 260 261 260 260 261 261 261 263 263 260 255 250 245 242
288 286 284 282 281 280 280 280 280 281 282 283 286 288 290 292 294 296 297 299 300 301 302 302 303 304 304 304 304 304 305 304 304 303 303 302 302 301 301 301 300 299 298 297 296 294 293 292 290 289 287 286 284 283 281 279 277 275 274 273 271 270 268 267 266 265 264 263 262 260 257 257 258 259 258 258 259 259 260 261 261 257 252 247 243
288 287 285 283 282 281 281 282 283 284 284 286 288 289 291 293 295 297 298 299 300 301 302 302 303 303 303 303 304 304 304 303 303 303 303 303 303 303 303 302 302 301 300 299 298 297 295 294 293 291 289 287 286 284 282 280 277 275 274 272 271 269 268 266 265 264 263 262 261 259 257 255 255 257 257 256 257 257 258 259 259 258 253 248 244
288 287 285 283 282 283 283 284 284 285 286 288 289 291 293 295 296 298 299 300 300 301 301 302 302 303 303 303 303 303 303 303 304 304 305 305 305 305 304 304 303 303 302 301 300 299 297 296 295 293 292 290 288 286 284 282 279 276 273 271 270 269 268 266 264 262 262 261 260 259 256 254 253 254 255 255 256 256 256 257 258 259 256 249 244
287 286 285 284 284 285 285 286 286 287 288 290 292 293 295 296 297 298 299 300 300 301 301 302 302 302 302 302 303 304 305 306 306 307 307 307 307 306 306 305 305 304 303 303 302 301 299 298 297 295 294 292 290 289 287 285 282 280 277 273 270 267 266 265 264 262 260 259 258 258 256 254 251 251 252 253 254 254 254 254 256 257 257 253 246
284 284 285 285 285 285 286 286 287 289 290 292 293 295 296 297 299 299 300 300 301 301 302 302 302 302 302 303 305 306 308 309 309 309 309 309 309 308 308 308 307 306 305 304 303 302 301 299 297 296 294 293 291 289 288 286 284 282 280 278 275 271 266 263 261 260 259 257 256 255 255 253 251 249 250 251 252 253 252 252 253 254 255 255 250
283 283 284 285 286 286 286 287 289 290 292 294 295 296 298 299 300 300 300 301 301 301 302 302 302 303 304 306 308 309 310 310 310 311 311 311 310 310 310 310 309 308 307 306 305 303 302 301 299 298 296 294 292 290 288 286 285 283 281 278 276 274 271 266 261 258 257 256 254 253 252 252 250 248 248 249 250 250 250 250 250 251 252 253 252
283 283 284 285 286 286 287 289 291 292 294 295 297 298 299 300 300 300 300 301 301 301 301 302 303 305 307 309 310 311 311 312 312 312 313 313 312 312 312 311 310 309 309 308 307 306 305 303 302 301 299 297 295 293 290 288 286 283 281 279 276 274 272 269 265 260 256 253 252 251 250 249 248 247 246 246 247 248 249 249 249 250 250 251 251
284 283 284 285 286 287 289 291 292 293 295 296 298 300 300 300 300 300 300 300 301 301 302 303 305 307 309 310 311 312 313 314 314 314 315 315 315 314 314 313 313 312 311 311 310 309 308 306 305 304 302 301 299 296 294 291 288 285 282 279 276 273 270 268 266 263 258 254 250 248 247 246 246 245 244 244 244 245 247 248 247 248 248 249 249
284 284 284 285 287 288 290 291 292 294 296 298 299 300 299 299 299 299 300 301 301 302 303 305 307 309 310 312 313 314 315 316 316 317 317 317 317 317 317 317 316 316 315 314 313 312 311 310 309 308 306 305 302 300 298 295 291 288 284 280 276 273 269 266 264 262 259 255 251 247 244 243 243 242 241 242 243 243 245 246 245 245 246 247 249
283 284 285 286 287 288 290 292 294 296 298 299 299 298 298 298 299 300 301 301 301 302 304 306 308 310 312 314 315 316 317 317 318 319 319 320 320 320 320 320 320 320 319 318 317 316 315 314 313 312 310 308 307 305 302 299 295 291 286 281 276 272 268 264 261 259 257 255 252 248 243 240 239 238 238 240 241 241 242 243 243 243 244 245 247
282 283 285 286 288 290 292 295 296 297 297 297 297 297 297 299 300 300 300 300 301 303 306 309 311 313 315 316 317 317 318 319 320 321 322 323 323 323 324 324 323 322 321 321 320 320 319 318 316 315 314 313 312 310 306 302 298 293 288 283 277 272 268 263 260 256 254 252 251 248 244 239 236 234 234 236 238 239 240 241 241 242 243 243 244
282 284 286 288 290 293 295 295 296 296 296 296 296 297 298 300 299 299 299 300 303 307 310 312 314 315 316 317 318 319 320 321 322 323 324 325 326 326 326 326 325 324 324 323 323 322 322 321 320 320 319 319 316 313 310 306 301 296 291 286 280 274 269 264 259 255 252 249 247 246 244 240 235 232 230 231 234 237 239 239 240 241 242 241 242
282 285 287 290 292 294 294 295 294 294 295 295 297 298 299 299 298 298 300 303 307 310 312 314 315 316 317 318 320 321 322 324 325 326 327 328 328 328 328 327 327 326 326 325 325 325 325 325 325 326 325 323 320 317 313 309 304 300 295 290 286 280 274 267 261 256 251 248 245 243 242 240 235 230 228 228 231 234 236 237 238 240 241 241 241
283 286 288 291 292 293 293 293 293 294 295 296 297 298 297 297 297 299 303 307 310 312 314 315 316 317 319 321 322 324 325 327 328 329 329 329 330 329 329 329 329 328 327 327 328 329 329 329 330 331 329 327 324 321 316 312 307 304 300 296 291 287 281 272 263 257 251 247 243 241 239 237 234 230 226 225 227 230 233 235 236 238 241 241 241
284 286 289 291 292 292 292 293 293 294 295 296 296 296 295 296 298 303 307 310 312 314 315 316 317 319 321 323 325 327 328 330 330 331 331 331 331 331 331 331 331 330 330 331 331 332 333 333 335 335 333 331 329 325 320 315 311 308 306 302 297 294 289 278 265 258 252 247 243 240 238 236 232 229 225 223 224 227 229 231 234 237 239 240 241
284 287 289 290 291 291 292 293 293 294 295 295 294 294 295 298 303 307 310 312 314 315 316 317 319 321 323 325 327 329 331 332 333 333 333 333 333 334 334 333 332 332 333 334 335 335 336 338 339 338 337 336 334 330 326 322 317 313 311 309 305 301 298 290 274 262 255 249 243 239 237 235 232 227 223 221 222 225 226 228 231 235 237 238 240
285 287 289 289 290 291 291 292 292 292 293 293 293 295 299 303 306 309 312 314 315 317 318 319 321 323 325 327 329 331 333 334 334 334 334 335 336 336 336 335 334 334 335 337 338 339 340 342 343 342 342 341 339 336 334 332 328 324 321 320 320 315 308 301 290 274 259 250 244 239 235 234 231 227 222 220 221 224 225 225 227 231 236 238 240
285 287 288 288 289 289 289 290 291 291 292 293 295 299 303 306 308 311 314 315 317 318 320 321 323 325 327 329 332 334 335 335 335 336 337 338 338 338 338 337 336 337 338 340 342 343 344 346 347 347 346 346 344 342 341 341 339 337 332 330 339 340 328 312 298 284 267 251 243 239 235 232 231 227 222 219 220 223 225 226 226 229 234 237 239
285 285 286 287 287 287 288 288 290 291 292 295 299 302 306 308 311 313 316 317 318 319 321 323 325 326 329 331 334 335 336 336 336 338 339 340 340 340 339 339 339 340 342 343 345 347 349 350 351 351 350 349 347 345 345 344 344 345 342 343 357 358 344 324 305 290 276 256 242 237 234 232 230 226 221 219 221 224 225 226 227 229 232 236 238
283 284 284 285 285 285 287 288 289 291 294 297 301 305 308 311 313 315 317 319 319 320 321 323 325 327 330 332 334 336 337 337 338 339 341 342 342 342 342 342 343 344 345 347 348 350 352 354 355 354 353 353 350 348 348 347 347 348 347 354 7 0 346 335 323 301 275 251 239 233 231 231 229 224 220 219 222 224 224 225 226 228 231 235 237
282 282 282 282 283 284 286 287 289 292 295 299 303 307 311 314 316 317 318 319 319 321 323 325 327 328 330 333 334 335 337 338 338 340 341 342 343 344 345 345 346 347 348 349 351 353 355 357 358 358 356 355 353 350 350 348 347 349 347 350 8 2 350 347 354 339 299 255 235 225 222 223 224 222 220 220 222 224 224 225 227 226 228 232 235
280 280 280 281 283 284 285 287 290 293 298 302 306 310 313 316 317 318 318 319 320 323 325 326 328 329 331 332 333 335 336 337 337 339 340 343 345 347 348 349 349 349 350 352 354 356 359 0 1 0 359 358 355 352 351 349 349 354 355 351 358 2 355 348 351 351 330 269 240 226 220 220 219 219 219 219 221 223 223 224 227 229 230 232 234
278 278 279 281 282 283 285 288 291 296 300 305 309 313 315 317 317 317 318 320 323 325 325 326 328 330 331 332 333 334 336 337 337 339 342 345 348 349 350 351 351 351 353 355 356 359 1 2 3 2 1 0 359 356 355 353 352 358 5 1 351 350 355 350 344 346 332 275 249 234 224 222 219 219 219 219 219 220 218 219 224 229 231 233 236
276 277 278 279 280 282 285 289 294 299 304 308 312 315 316 316 317 317 320 323 325 326 326 327 330 331 332 332 334 335 336 338 339 341 344 348 350 351 352 354 354 354 356 357 358 0 2 2 4 4 4 3 3 1 359 358 357 357 4 9 3 354 352 346 341 2 5 308 260 246 231 226 222 219 218 219 220 219 216 217 223 228 228 230 235
274 275 275 276 279 282 286 291 297 302 307 311 314 316 316 316 316 318 322 325 326 327 329 331 333 333 333 334 335 336 338 340 341 343 346 349 351 353 354 355 356 357 358 358 359 1 2 3 5 7 7 6 6 5 3 1 1 359 357 5 11 10 9 349 292 329 15 20 296 257 245 230 224 221 218 217 219 219 218 222 231 236 233 231 234
271 271 273 275 279 283 289 295 300 304 309 312 315 316 316 315 317 319 323 326 328 330 332 334 335 336 336 336 338 339 340 342 343 344 346 349 352 354 355 356 358 359 359 360 0 1 2 4 6 8 9 9 9 9 8 5 3 3 1 356 352 5 19 21 313 280 330 15 40 224 243 231 216 217 218 216 218 220 223 227 234 238 238 237 238
268 269 271 275 280 286 292 298 302 306 310 314 316 317 316 315 317 321 324 327 330 333 335 337 338 339 339 339 340 342 343 344 344 345 347 350 352 354 355 357 359 1 0 0 0 1 3 5 7 9 11 12 11 12 12 10 7 5 5 0 347 343 3 18 19 324 293 323 6 204 233 234 217 216 215 214 216 220 223 228 233 234 235 238 238
264 266 270 275 283 289 295 299 304 308 312 316 317 315 314 314 318 322 325 329 333 337 339 341 341 342 342 342 343 344 345 345 346 347 348 351 353 355 357 359 0 1 0 360 1 2 3 6 8 9 11 13 14 14 14 14 13 11 8 5 359 346 337 351 10 18 340 305 319 344 1 202 217 222 218 214 214 217 220 225 230 234 237 240 240
261 265 271 278 286 291 295 300 305 310 314 317 316 313 313 315 319 324 328 332 337 341 343 344 344 344 345 345 346 347 347 347 347 348 350 352 354 356 358 0 1 1 0 360 1 2 4 6 8 10 11 13 15 16 16 16 16 16 15 11 6 360 346 332 342 7 20 8 324 312 323 352 181 215 222 219 216 214 215 220 223 227 233 235 234
258 266 275 282 287 291 296 302 307 312 316 317 314 312 313 316 321 327 332 336 341 345 346 347 347 347 348 348 348 349 349 349 349 350 351 352 355 357 359 0 1 1 1 1 1 2 4 6 8 10 12 13 15 17 17 17 18 18 18 17 14 9 3 348 328 335 360 17 18 346 326 318 293 236 228 226 222 218 217 219 217 215 219 224 223
260 269 278 282 286 292 299 305 309 314 316 315 312 311 315 321 326 332 336 341 345 348 348 349 350 350 350 351 351 351 351 351 351 352 352 354 356 358 359 360 1 2 2 2 2 3 3 5 8 10 12 13 15 17 18 18 19 19 19 19 19 16 12 7 357 342 338 348 3 13 360 331 308 286 258 239 232 229 228 229 230 228 227 230 232
263 271 276 280 287 295 302 307 311 314 316 313 311 314 321 327 332 336 340 345 349 350 350 351 352 352 352 353 353 353 353 353 353 353 354 355 356 357 358 359 1 2 3 3 3 3 4 5 7 9 11 13 14 16 18 19 20 20 21 21 21 20 18 14 8 1 350 339 335 341 353 357 343 322 293 266 254 249 245 244 245 246 247 248 250
264 267 272 281 291 299 303 307 310 312 313 311 313 319 328 333 337 340 344 347 350 352 352 352 353 354 354 354 355 355 355 355 355 355 355 355 355 356 358 359 0 2 3 4 4 4 4 5 6 8 10 12 14 15 17 18 19 21 22 23 23 23 22 21 18 12 5 356 343 331 325 327 337 343 333 306 283 271 265 261 259 258 258 259 259
259 263 273 284 294 300 304 307 309 309 311 312 317 326 333 337 340 342 345 347 350 352 353 353 353 354 354 355 356 356 356 356 356 355 355 355 355 355 357 358 360 1 3 4 4 4 4 5 6 7 8 10 13 14 15 17 19 20 21 22 23 23 23 24 24 22 18 12 5 354 340 324 310 307 315 324 321 308 292 281 273 267 265 265 265
255 264 276 288 296 300 304 306 306 307 310 314 321 329 335 338 341 343 345 347 348 350 352 353 353 353 354 354 355 356 356 356 356 356 356 355 355 355 356 358 359 0 2 3 4 4 5 5 6 7 8 9 11 12 14 15 17 18 20 21 22 23 24 24 25 25 25 22 17 10 1 349 331 311 296 291 297 308 313 308 297 285 275 270 268
254 265 278 290 295 298 301 303 303 305 310 315 322 329 333 337 340 343 344 345 347 348 350 351 352 352 353 353 354 355 355 355 355 355 355 356 355 355 355 357 358 359 1 2 3 4 4 5 5 6 7 8 9 10 12 14 15 17 18 19 21 22 23 24 24 24 25 25 24 21 16 8 357 342 322 303 290 286 289 294 300 300 294 285 277
254 266 278 287 292 295 298 300 301 304 309 315 320 326 331 334 337 339 341 342 344 345 347 348 350 350 351 351 352 353 353 354 354 354 354 355 355 355 355 355 357 358 359 1 2 3 3 4 4 5 6 8 8 9 10 12 13 15 16 17 19 20 22 23 24 24 24 24 25 25 24 21 15 7 355 339 320 300 288 283 282 284 287 288 287
251 262 273 280 286 290 293 297 300 303 308 313 317 322 326 329 332 335 337 339 340 341 343 345 346 348 348 349 349 350 351 351 352 352 353 353 354 355 355 355 355 356 357 358 0 1 2 3 3 4 5 6 7 8 9 10 11 13 14 16 17 18 19 20 22 23 23 24 24 25 25 25 24 21 15 6 355 338 318 299 286 280 278 277 277
246 257 266 274 281 286 289 294 298 302 305 310 313 317 321 324 326 329 331 333 335 337 338 340 342 343 344 345 346 347 348 349 349 349 350 351 352 353 354 354 354 354 355 356 357 359 0 1 1 2 3 4 5 6 8 8 9 11 12 13 15 16 17 18 18 20 21 22 24 24 24 24 24 24 22 20 15 8 356 340 320 300 287 280 276
243 252 260 268 275 281 286 290 294 298 302 305 309 312 315 318 320 322 324 327 329 331 333 335 337 338 340 341 342 343 345 346 346 347 347 348 349 350 351 352 352 352 352 353 355 356 357 359 360 360 0 1 3 4 5 6 7 8 9 10 12 13 14 15 16 16 18 19 20 22 23 23 23 22 22 21 21 19 15 9 359 344 325 305 291
242 249 257 265 272 278 283 287 291 294 298 300 303 306 309 311 313 315 317 320 322 325 327 329 331 333 334 336 337 339 340 342 343 344 344 345 346 347 348 349 350 350 350 351 352 352 353 355 357 358 358 359 360 1 2 3 4 5 7 8 9 10 11 12 12 13 14 15 16 18 19 21 21 21 20 20 19 18 18 17 14 8 0 347 329
243 250 258 264 270 276 281 285 288 291 294 296 299 302 304 306 308 310 312 314 316 319 322 324 325 327 329 330 332 333 335 337 338 340 341 341 342 343 344 345 346 347 348 348 349 349 350 351 353 354 356 357 357 358 358 360 1 2 3 5 6 8 9 9 10 10 10 11 12 13 15 16 17 18 19 19 17 16 15 14 14 13 10 7 0
247 253 259 265 270 274 278 282 285 288 291 293 296 298 300 302 304 306 307 309 311 314 316 318 320 321 323 324 326 328 329 331 333 335 336 337 338 339 340 341 342 343 344 345 345 346 346 347 348 350 352 353 355 355 355 356 357 359 0 1 3 4 6 7 7 7 7 7 7 8 10 11 12 13 14 15 16 15 14 12 11 10 9 8 6
251 256 261 265 269 273 276 280 283 286 288 290 293 295 297 298 300 302 304 306 307 309 311 313 315 316 317 318 320 322 324 326 328 330 331 333 334 335 336 337 338 339 340 341 342 343 343 343 344 345 347 349 351 352 353 353 354 355 357 358 359 0 2 3 4 5 5 5 4 4 4 5 6 7 8 9 11 11 11 11 9 8 7 5 4
252 257 261 265 269 273 277 279 282 284 286 288 290 292 293 295 297 299 301 304 305 306 308 308 309 311 312 313 315 317 319 321 323 324 326 328 329 331 332 333 333 335 336 337 338 339 339 339 340 341 342 344 346 347 349 350 350 351 352 354 355 356 357 358 359 1 2 2 2 2 1 1 1 1 2 3 4 5 6 6 6 5 4 3 2
Height
5797 5796 5796 5795 5795 5794 5794 5793 5792 5792 5791 5791 5790 5789 5788 5786 5785 5783 5782 5780 5779 5777 5775 5774 5772 5770 5768 5766 5764 5763 5761 5759 5757 5755 5753 5751 5749 5747 5746 5744 5743 5741 5739 5738 5736 5735 5733 5732 5730 5729 5727 5727 5726 5725 5724 5723 5722 5721 5720 5719 5719 5717 5716 5715 5715 5718 5723 5722 5721 5721 5720 5718 5718 5717 5716 5716 5715 5715 5715 5716 5717 5719 5721 5721 5723
5792 5792 5791 5791 5790 5790 5790 5789 5788 5788 5787 5786 5786 5785 5783 5782 5781 5779 5778 5776 5774 5773 5771 5769 5767 5765 5763 5761 5759 5758 5756 5754 5752 5750 5748 5745 5743 5742 5740 5738 5737 5735 5733 5732 5730 5729 5727 5726 5724 5723 5721 5720 5719 5718 5717 5716 5715 5714 5713 5712 5712 5711 5709 5708 5707 5709 5714 5716 5715 5714 5714 5713 5712 5712 5711 5710 5710 5709 5709 5710 5711 5713 5714 5716 5718
5788 5787 5787 5787 5786 5786 5785 5785 5784 5784 5783 5782 5781 5780 5779 5778 5776 5775 5773 5772 5770 5768 5766 5764 5762 5760 5758 5756 5754 5752 5750 5749 5747 5745 5742 5740 5738 5736 5734 5733 5731 5729 5727 5725 5724 5722 5721 5719 5717 5716 5715 5713 5712 5711 5710 5709 5708 5707 5706 5705 5705 5704 5703 5701 5700 5700 5704 5708 5709 5707 5708 5707 5706 5705 5705 5704 5704 5703 5703 5704 5705 5707 5708 5710 5712
5784 5783 5783 5783 5782 5782 5781 5781 5780 5780 5779 5778 5777 5776 5775 5773 5772 5771 5769 5767 5765 5763 5761 5759 5757 5755 5753 5751 5749 5747 5745 5743 5741 5739 5737 5735 5733 5731 5729 5727 5725 5723 5721 5719 5717 5715 5713 5712 5710 5709 5707 5706 5705 5704 5702 5701 5700 5699 5699 5698 5697 5697 5696 5694 5693 5692 5694 5698 5701 5701 5700 5700 5700 5699 5699 5698 5698 5698 5697 5698 5699 5700 5702 5703 5705
5780 5780 5779 5779 5778 5778 5777 5777 5776 5776 5775 5774 5773 5772 5770 5769 5768 5766 5764 5763 5761 5759 5757 5755 5753 5750 5748 5746 5744 5742 5739 5738 5735 5733 5731 5729 5727 5725 5722 5720 5718 5716 5714 5712 5710 5708 5706 5704 5703 5701 5700 5698 5697 5696 5695 5693 5692 5691 5690 5690 5689 5688 5688 5687 5686 5685 5685 5688 5692 5694 5693 5692 5692 5693 5693 5692 5692 5692 5691 5691 5692 5693 5695 5697 5699
5776 5776 5775 5775 5775 5774 5773 5773 5772 5771 5771 5770 5768 5767 5766 5765 5763 5762 5760 5758 5756 5754 5752 5750 5748 5746 5743 5741 5739 5736 5734 5732 5730 5728 5726 5723 5721 5719 5716 5714 5712 5709 5707 5705 5703 5701 5699 5697 5695 5693 5691 5690 5689 5687 5686 5685 5683 5682 5681 5680 5680 5679 5679 5679 5678 5678 5677 5678 5682 5685 5686 5685 5685 5686 5686 5685 5685 5686 5685 5685 5686 5687 5688 5690 5692
5773 5772 5772 5771 5771 5770 5769 5769 5768 5767 5766 5765 5764 5763 5762 5761 5759 5757 5756 5754 5752 5750 5748 5746 5743 5741 5739 5736 5734 5731 5729 5727 5724 5722 5720 5717 5715 5712 5710 5707 5705 5702 5700 5698 5695 5693 5691 5689 5687 5685 5683 5681 5680 5678 5677 5676 5674 5673 5671 5670 5670 5670 5670 5670 5670 5669 5669 5670 5672 5675 5677 5678 5677 5678 5680 5679 5678 5679 5680 5680 5680 5681 5681 5683 5685
5769 5768 5768 5767 5767 5766 5765 5765 5764 5763 5762 5761 5760 5759 5758 5756 5755 5753 5751 5749 5747 5745 5743 5741 5739 5736 5734 5732 5729 5727 5724 5721 5719 5716 5714 5711 5709 5706 5704 5701 5698 5696 5693 5691 5688 5686 5683 5681 5678 5676 5674 5673 5671 5669 5667 5666 5665 5664 5662 5660 5660 5659 5660 5660 5660 5660 5660 5661 5663 5665 5668 5670 5670 5670 5672 5672 5671 5673 5674 5673 5674 5675 5675 5676 5678
5765 5764 5764 5763 5763 5762 5761 5761 5760 5759 5758 5757 5756 5755 5753 5752 5750 5749 5747 5745 5743 5741 5739 5737 5734 5732 5729 5727 5724 5721 5719 5716 5713 5711 5708 5705 5703 5700 5697 5695 5692 5689 5686 5684 5681 5678 5676 5673 5670 5668 5665 5663 5661 5659 5657 5655 5653 5652 5652 5651 5650 5649 5648 5649 5649 5650 5651 5652 5654 5656 5658 5661 5662 5662 5663 5664 5665 5666 5667 5666 5667 5668 5668 5669 5670
5761 5760 5760 5759 5758 5758 5757 5757 5756 5755 5754 5753 5752 5751 5749 5748 5746 5744 5743 5741 5739 5737 5734 5732 5730 5727 5725 5722 5719 5716 5713 5710 5707 5705 5702 5699 5697 5694 5691 5688 5685 5683 5680 5677 5674 5671 5668 5665 5662 5659 5657 5654 5652 5650 5648 5645 5642 5640 5639 5638 5638 5638 5638 5638 5638 5639 5640 5642 5644 5646 5648 5651 5654 5654 5655 5657 5657 5658 5659 5660 5660 5661 5661 5662 5664
5757 5757 5756 5755 5755 5754 5753 5753 5752 5751 5750 5749 5748 5746 5745 5743 5742 5740 5738 5736 5734 5732 5730 5727 5725 5722 5719 5717 5714 5711 5708 5705 5702 5699 5696 5693 5690 5687 5684 5681 5678 5675 5673 5670 5667 5664 5660 5657 5654 5651 5649 5646 5643 5641 5639 5636 5632 5629 5627 5625 5624 5623 5625 5626 5627 5628 5629 5631 5633 5636 5638 5641 5644 5645 5646 5648 5649 5650 5651 5652 5653 5654 5655 5656 5658
5754 5753 5752 5752 5751 5750 5749 5749 5748 5747 5746 5745 5743 5742 5741 5739 5737 5736 5734 5732 5729 5727 5725 5723 5720 5717 5714 5712 5709 5706 5702 5700 5697 5694 5691 5688 5684 5681 5678 5675 5672 5669 5665 5662 5659 5656 5653 5649 5646 5643 5639 5636 5634 5632 5629 5626 5623 5619 5617 5615 5612 5609 5609 5611 5614 5616 5617 5619 5621 5625 5627 5630 5634 5637 5638 5639 5640 5641 5642 5644 5646 5648 5649 5650 5652
5750 5749 5748 5748 5747 5746 5746 5745 5744 5743 5742 5741 5740 5738 5737 5735 5733 5731 5729 5727 5725 5723 5720 5718 5715 5712 5710 5707 5704 5701 5698 5695 5692 5689 5685 5682 5679 5676 5672 5669 5666 5662 5659 5655 5652 5648 5645 5641 5637 5634 5630 5626 5623 5620 5618 5615 5612 5609 5606 5603 5601 5598 5596 5595 5597 5601 5604 5607 5610 5614 5616 5619 5623 5628 5629 5629 5631 5632 5634 5636 5639 5640 5642 5644 5645
5746 5745 5745 5744 5743 5743 5742 5741 5740 5739 5738 5737 5736 5734 5733 5731 5729 5727 5725 5723 5721 5718 5716 5713 5711 5708 5705 5703 5700 5697 5693 5690 5687 5684 5680 5677 5673 5670 5667 5663 5659 5656 5652 5648 5645 5641 5637 5633 5629 5625 5620 5616 5612 5609 5606 5603 5600 5597 5594 5591 5588 5586 5584 5583 5583 5585 5588 5592 5597 5602 5606 5607 5612 5617 5619 5620 5622 5624 5626 5628 5631 5633 5635 5636 5637
5742 5741 5741 5740 5740 5739 5738 5738 5737 5736 5735 5733 5732 5730 5729 5727 5725 5723 5721 5719 5716 5714 5712 5709 5707 5704 5701 5699 5696 5693 5689 5686 5683 5679 5675 5672 5668 5664 5661 5657 5653 5649 5645 5641 5637 5634 5629 5625 5620 5615 5611 5606 5601 5596 5593 5589 5585 5583 5580 5577 5574 5572 5571 5570 5570 5571 5573 5577 5582 5588 5594 5597 5600 5606 5609 5611 5613 5616 5618 5620 5623 5625 5627 5629 5630
5738 5738 5737 5737 5736 5736 5735 5734 5733 5732 5731 5730 5728 5727 5725 5723 5721 5719 5717 5715 5712 5710 5708 5705 5703 5700 5697 5694 5692 5689 5685 5682 5679 5675 5671 5667 5663 5659 5655 5651 5647 5642 5638 5634 5630 5626 5621 5616 5611 5606 5601 5595 5590 5584 5579 5574 5570 5566 5564 5562 5559 5557 5556 5556 5556 5557 5559 5563 5567 5573 5580 5586 5589 5594 5599 5601 5603 5606 5608 5610 5615 5618 5619 5622 5624
5735 5734 5734 5733 5733 5732 5731 5730 5729 5728 5727 5726 5724 5723 5721 5719 5717 5715 5713 5711 5709 5706 5704 5701 5699 5696 5693 5690 5688 5685 5681 5678 5675 5671 5667 5663 5658 5654 5650 5646 5641 5637 5632 5628 5623 5618 5613 5608 5603 5597 5591 5585 5578 5572 5566 5560 5555 5551 5548 5546 5543 5542 5541 5541 5542 5543 5545 5549 5553 5558 5565 5573 5579 5584 5588 5591 5594 5596 5598 5602 5608 5611 5612 5615 5618
5731 5731 5730 5730 5729 5729 5728 5727 5726 5725 5724 5722 5720 5719 5717 5715 5713 5712 5710 5707 5705 5703 5700 5697 5695 5692 5690 5687 5684 5681 5678 5674 5671 5667 5663 5659 5654 5650 5645 5641 5637 5632 5627 5622 5618 5612 5607 5601 5595 5588 5582 5575 5567 5560 5553 5548 5542 5537 5534 5531 5529 5528 5528 5528 5528 5530 5532 5536 5541 5545 5551 5560 5568 5573 5577 5582 5585 5587 5590 5596 5601 5603 5605 5609 5612
5728 5727 5727 5726 5726 5725 5724 5723 5722 5721 5720 5718 5716 5715 5713 5711 5710 5708 5706 5704 5701 5699 5696 5694 5691 5688 5686 5683 5680 5677 5673 5670 5666 5662 5658 5654 5650 5645 5641 5636 5632 5627 5623 5618 5613 5607 5601 5594 5588 5580 5573 5565 5557 5550 5543 5537 5531 5526 5523 5520 5518 5517 5516 5516 5517 5518 5520 5523 5528 5533 5539 5547 5556 5563 5567 5572 5576 5579 5584 5589 5593 5595 5598 5602 5604
5724 5724 5724 5723 5722 5722 5721 5720 5718 5717 5716 5714 5713 5711 5710 5708 5706 5704 5702 5700 5698 5695 5693 5690 5688 5685 5682 5679 5676 5673 5669 5666 5662 5658 5654 5650 5645 5641 5637 5632 5628 5623 5618 5613 5607 5602 5595 5589 5581 5573 5565 5557 5549 5542 5534 5528 5522 5518 5514 5511 5508 5507 5507 5508 5508 5509 5510 5513 5516 5522 5528 5535 5544 5552 5558 5563 5567 5571 5576 5581 5584 5588 5591 5594 5596
5721 5721 5720 5720 5719 5718 5717 5716 5715 5713 5712 5710 5709 5708 5706 5705 5703 5701 5698 5696 5694 5692 5689 5687 5684 5682 5679 5676 5673 5669 5666 5662 5658 5654 5650 5646 5641 5637 5633 5628 5623 5618 5613 5608 5602 5596 5590 5583 5575 5567 5558 5550 5542 5535 5528 5521 5516 5511 5507 5504 5501 5500 5500 5501 5501 5501 5502 5505 5508 5512 5518 5525 5534 5542 5548 5554 5559 5564 5568 5573 5577 5581 5584 5586 5589
5718 5717 5717 5716 5715 5714 5713 5712 5711 5710 5708 5707 5706 5704 5703 5701 5699 5697 5695 5692 5690 5688 5686 5683 5681 5678 5675 5672 5669 5666 5662 5658 5654 5650 5646 5642 5638 5633 5629 5624 5619 5614 5609 5604 5598 5591 5585 5577 5569 5560 5552 5544 5536 5528 5523 5517 5512 5507 5503 5500 5498 5496 5495 5495 5496 5496 5497 5498 5501 5505 5510 5516 5525 5532 5539 5545 5551 5556 5561 5567 5571 5574 5576 5579 5582
5714 5714 5713 5712 5711 5710 5709 5708 5707 5706 5705 5704 5702 5701 5699 5697 5695 5693 5691 5689 5686 5684 5682 5680 5677 5675 5672 5669 5666 5662 5659 5655 5651 5647 5643 5639 5634 5630 5625 5620 5616 5611 5606 5600 5594 5587 5580 5572 5564 5555 5546 5538 5530 5523 5518 5513 5508 5504 5501 5498 5496 5494 5493 5492 5492 5492 5493 5494 5496 5500 5504 5510 5517 5525 5532 5538 5544 5549 5554 5559 5564 5567 5570 5572 5576
5711 5710 5709 5709 5708 5707 5706 5705 5704 5703 5702 5700 5698 5697 5695 5693 5692 5689 5687 5685 5683 5681 5679 5677 5674 5671 5669 5666 5663 5659 5656 5652 5648 5644 5640 5636 5631 5627 5622 5618 5613 5607 5602 5596 5590 5583 5576 5568 5559 5550 5542 5534 5526 5519 5514 5510 5506 5503 5500 5497 5495 5493 5492 5491 5490 5489 5490 5491 5493 5496 5500 5505 5512 5519 5526 5532 5538 5543 5547 5552 5557 5560 5563 5566 5569
5707 5707 5706 5705 5704 5703 5702 5702 5701 5700 5698 5697 5695 5693 5692 5690 5688 5686 5684 5682 5680 5678 5676 5674 5672 5669 5666 5663 5660 5657 5653 5650 5646 5642 5638 5634 5629 5625 5620 5615 5610 5605 5599 5593 5586 5580 5572 5564 5556 5547 5539 5531 5524 5518 5513 5509 5505 5502 5499 5496 5494 5492 5491 5489 5488 5488 5488 5490 5491 5494 5497 5502 5507 5513 5520 5526 5531 5536 5541 5546 5550 5554 5558 5561 5564
5704 5703 5703 5702 5701 5700 5699 5698 5697 5696 5695 5694 5692 5690 5688 5686 5685 5683 5681 5679 5677 5675 5673 5671 5669 5667 5664 5661 5658 5655 5651 5648 5644 5640 5636 5632 5628 5624 5619 5613 5607 5602 5596 5590 5583 5577 5570 5562 5554 5545 5537 5529 5522 5516 5512 5507 5504 5501 5499 5496 5494 5492 5491 5489 5488 5487 5487 5488 5491 5493 5496 5501 5505 5509 5515 5521 5526 5531 5536 5540 5545 5549 5553 5556 5558
5700 5700 5699 5698 5698 5697 5696 5695 5694 5693 5692 5691 5689 5687 5685 5683 5681 5680 5678 5676 5675 5673 5671 5669 5666 5664 5661 5659 5656 5653 5649 5646 5642 5639 5635 5631 5627 5622 5617 5611 5606 5600 5594 5588 5582 5575 5568 5560 5552 5543 5535 5527 5521 5516 5511 5508 5505 5502 5499 5497 5494 5492 5491 5489 5488 5487 5487 5488 5490 5493 5495 5499 5502 5507 5512 5517 5521 5527 5531 5535 5539 5544 5547 5550 5552
5697 5696 5696 5695 5695 5694 5693 5692 5691 5690 5689 5688 5686 5684 5682 5680 5679 5677 5676 5674 5673 5671 5669 5666 5664 5662 5659 5656 5653 5650 5647 5644 5641 5638 5634 5630 5625 5620 5615 5609 5604 5598 5593 5587 5580 5574 5566 5559 5552 5545 5538 5530 5524 5518 5513 5509 5506 5503 5500 5498 5495 5493 5492 5490 5489 5489 5489 5489 5490 5492 5494 5497 5500 5504 5508 5513 5518 5523 5527 5531 5535 5539 5541 5544 5547
5693 5693 5692 5692 5692 5691 5690 5689 5688 5687 5686 5685 5683 5681 5680 5678 5676 5675 5673 5672 5670 5669 5667 5664 5662 5660 5657 5655 5652 5649 5646 5642 5639 5636 5632 5627 5622 5617 5612 5607 5602 5596 5591 5585 5579 5573 5567 5561 5554 5547 5540 5533 5526 5520 5515 5510 5507 5504 5501 5499 5496 5494 5493 5491 5490 5490 5489 5489 5490 5492 5494 5496 5499 5501 5505 5510 5514 5518 5522 5526 5530 5533 5536 5539 5541
5689 5689 5689 5689 5689 5688 5687 5687 5686 5684 5683 5682 5680 5679 5677 5676 5674 5673 5671 5670 5668 5666 5664 5662 5660 5657 5655 5653 5650 5646 5643 5640 5636 5633 5629 5625 5620 5615 5610 5605 5600 5595 5590 5584 5579 5573 5568 5562 5556 5549 5541 5534 5527 5521 5516 5511 5508 5505 5502 5500 5498 5496 5494 5492 5491 5490 5489 5489 5490 5492 5493 5495 5497 5500 5503 5507 5511 5515 5518 5522 5524 5527 5531 5534 5536
5686 5686 5686 5686 5686 5685 5685 5684 5683 5682 5680 5679 5678 5676 5675 5674 5672 5671 5669 5668 5666 5664 5662 5660 5658 5655 5653 5650 5647 5644 5641 5637 5634 5630 5626 5623 5619 5614 5609 5604 5599 5594 5589 5584 5579 5574 5569 5563 5557 5549 5542 5535 5528 5522 5516 5512 5508 5506 5503 5501 5498 5497 5495 5493 5491 5490 5490 5491 5491 5492 5493 5494 5496 5499 5502 5505 5509 5512 5515 5518 5520 5523 5526 5529 5532
5683 5683 5683 5683 5683 5682 5682 5681 5680 5679 5678 5677 5675 5674 5673 5671 5670 5669 5668 5666 5664 5662 5660 5658 5656 5653 5651 5648 5645 5642 5638 5635 5632 5628 5625 5621 5617 5613 5608 5604 5599 5593 5589 5584 5579 5575 5570 5564 5558 5551 5544 5537 5530 5524 5518 5513 5509 5506 5504 5501 5499 5497 5495 5494 5492 5491 5491 5491 5492 5492 5493 5493 5495 5497 5500 5504 5507 5510 5513 5515 5517 5520 5522 5525 5528
5680 5680 5680 5680 5680 5680 5679 5678 5677 5676 5675 5674 5673 5672 5671 5669 5668 5667 5666 5664 5662 5660 5658 5656 5654 5651 5649 5646 5643 5640 5637 5634 5630 5627 5623 5620 5616 5612 5607 5603 5598 5593 5588 5584 5580 5576 5570 5564 5558 5552 5545 5539 5532 5526 5520 5515 5510 5507 5504 5502 5500 5498 5496 5494 5494 5493 5492 5491 5492 5492 5492 5493 5494 5496 5499 5502 5505 5507 5510 5513 5515 5517 5520 5522 5525
5677 5677 5678 5678 5677 5677 5676 5675 5675 5674 5673 5672 5670 5669 5668 5668 5667 5665 5664 5662 5660 5658 5656 5654 5652 5649 5647 5644 5641 5638 5635 5632 5629 5626 5622 5619 5615 5611 5606 5601 5596 5592 5588 5585 5581 5576 5571 5565 5560 5554 5548 5541 5535 5529 5523 5518 5513 5509 5506 5503 5501 5499 5497 5496 5495 5494 5493 5492 5492 5492 5492 5493 5494 5496 5498 5500 5502 5505 5508 5510 5513 5515 5517 5519 5521
5674 5675 5675 5675 5675 5674 5674 5673 5672 5671 5670 5669 5668 5667 5666 5666 5665 5663 5662 5660 5658 5656 5654 5652 5650 5648 5645 5642 5640 5637 5634 5631 5628 5625 5622 5618 5614 5610 5605 5601 5597 5593 5589 5585 5580 5576 5571 5566 5561 5555 5550 5544 5538 5532 5526 5521 5516 5512 5508 5505 5502 5500 5499 5497 5496 5494 5494 5493 5493 5493 5493 5493 5494 5495 5497 5498 5501 5503 5506 5509 5511 5513 5514 5516 5518
5672 5672 5672 5672 5672 5672 5671 5671 5670 5669 5668 5667 5666 5666 5665 5664 5663 5661 5660 5658 5656 5654 5653 5651 5648 5646 5643 5641 5638 5635 5633 5630 5627 5624 5621 5617 5614 5610 5606 5601 5598 5594 5589 5585 5580 5576 5571 5567 5562 5557 5552 5546 5541 5535 5530 5524 5519 5515 5510 5507 5504 5502 5500 5498 5497 5495 5494 5494 5494 5493 5493 5493 5494 5495 5496 5498 5499 5502 5504 5506 5508 5510 5511 5513 5515
5670 5670 5670 5670 5669 5669 5669 5668 5667 5667 5666 5665 5664 5664 5663 5662 5661 5660 5658 5656 5655 5653 5651 5649 5647 5644 5642 5639 5637 5634 5632 5629 5626 5623 5620 5616 5612 5609 5605 5602 5598 5594 5589 5585 5580 5576 5572 5568 5563 5558 5554 5549 5543 5538 5533 5528 5523 5518 5513 5509 5506 5503 5500 5499 5497 5496 5495 5495 5494 5494 5494 5494 5494 5495 5496 5497 5499 5500 5502 5503 5505 5506 5508 5510 5512
5667 5667 5667 5667 5667 5667 5666 5666 5665 5665 5664 5663 5663 5662 5661 5660 5659 5658 5656 5655 5653 5651 5649 5647 5645 5643 5641 5638 5636 5633 5630 5627 5624 5621 5618 5615 5611 5608 5605 5602 5598 5594 5590 5585 5581 5577 5573 5568 5564 5560 5556 5551 5546 5541 5536 5532 5527 5522 5518 5513 5509 5506 5503 5501 5499 5498 5497 5496 5495 5495 5495 5495 5495 5495 5496 5497 5498 5500 5501 5502 5503 5504 5505 5507 5508
5665 5665 5665 5665 5665 5664 5664 5664 5663 5662 5662 5661 5661 5660 5659 5658 5657 5656 5655 5653 5652 5650 5648 5646 5644 5642 5639 5637 5634 5632 5629 5626 5623 5620 5617 5614 5611 5608 5605 5602 5598 5594 5590 5586 5582 5578 5574 5569 5565 5561 5557 5553 5549 5544 5540 5535 5531 5526 5522 5518 5514 5510 5507 5504 5502 5499 5498 5497 5496 5495 5495 5495 5496 5496 5496 5497 5498 5499 5500 5501 5502 5503 5504 5504 5506
5662 5663 5663 5663 5663 5662 5662 5661 5661 5660 5660 5660 5659 5658 5658 5657 5656 5654 5653 5651 5650 5648 5647 5645 5643 5641 5638 5636 5633 5631 5628 5625 5623 5620 5617 5614 5611 5608 5605 5601 5598 5594 5590 5587 5583 5579 5575 5571 5567 5563 5559 5555 5551 5547 5542 5538 5534 5530 5526 5522 5518 5514 5511 5507 5504 5502 5499 5498 5497 5496 5495 5495 5496 5496 5497 5497 5498 5498 5499 5500 5501 5502 5502 5503 5504
5660 5661 5661 5661 5660 5660 5660 5659 5659 5659 5658 5658 5657 5657 5656 5655 5654 5653 5651 5650 5648 5647 5645 5643 5642 5640 5637 5635 5632 5630 5627 5625 5622 5620 5617 5614 5611 5608 5605 5601 5598 5594 5591 5587 5583 5580 5576 5572 5568 5564 5560 5556 5552 5549 5545 5541 5537 5533 5529 5526 5522 5518 5514 5511 5508 5505 5502 5500 5499 5497 5496 5496 5496 5496 5496 5497 5498 5498 5499 5499 5500 5500 5501 5502 5503
5658 5658 5659 5659 5658 5658 5658 5658 5657 5657 5657 5656 5656 5655 5654 5653 5652 5651 5650 5648 5647 5645 5644 5642 5640 5638 5636 5634 5631 5629 5626 5624 5621 5619 5616 5613 5610 5607 5604 5601 5598 5594 5591 5587 5584 5580 5577 5573 5570 5566 5562 5558 5554 5551 5547 5544 5540 5536 5533 5529 5525 5522 5518 5515 5511 5508 5506 5503 5501 5499 5498 5497 5496 5496 5496 5496 5497 5497 5498 5499 5499 5500 5500 5501 5502
5656 5656 5657 5657 5657 5656 5656 5656 5656 5655 5655 5655 5654 5653 5652 5652 5651 5649 5648 5647 5645 5643 5642 5640 5638 5637 5635 5633 5630 5628 5625 5623 5620 5618 5615 5612 5609 5606 5603 5600 5597 5594 5591 5587 5584 5581 5577 5574 5571 5567 5564 5560 5556 5553 5549 5546 5542 5539 5535 5532 5529 5525 5522 5519 5515 5512 5510 5507 5505 5502 5500 5499 5497 5496 5496 5496 5496 5496 5497 5498 5498 5499 5500 5500 5501
5654 5654 5655 5655 5655 5655 5655 5654 5654 5654 5653 5653 5652 5651 5651 5650 5649 5647 5646 5645 5643 5642 5640 5638 5637 5635 5633 5631 5629 5627 5624 5622 5619 5617 5614 5611 5609 5606 5603 5600 5597 5594 5590 5587 5584 5581 5578 5575 5571 5568 5565 5561 5558 5555 5551 5548 5545 5541 5538 5535 5532 5529 5526 5523 5520 5517 5514 5511 5508 5506 5503 5501 5500 5498 5497 5496 5496 5496 5496 5496 5497 5498 5498 5499 5500
5652 5652 5653 5653 5653 5653 5653 5652 5652 5652 5651 5651 5650 5649 5648 5648 5646 5645 5644 5643 5642 5640 5639 5637 5635 5633 5631 5629 5627 5625 5623 5621 5618 5616 5613 5610 5608 5605 5602 5599 5596 5593 5590 5587 5584 5581 5578 5575 5572 5569 5566 5562 5559 5556 5553 5550 5546 5543 5540 5537 5534 5531 5529 5526 5523 5520 5517 5514 5512 5509 5507 5505 5503 5501 5499 5498 5497 5496 5496 5496 5496 5496 5497 5497 5498
5650 5650 5650 5651 5651 5651 5651 5650 5650 5649 5649 5648 5648 5647 5646 5645 5644 5643 5642 5641 5640 5638 5637 5635 5633 5631 5629 5628 5626 5624 5621 5619 5617 5614 5612 5609 5607 5604 5601 5598 5596 5593 5590 5587 5584 5581 5578 5575 5572 5569 5566 5563 5560 5557 5554 5551 5548 5545 5542 5539 5536 5533 5530 5528 5525 5523 5520 5517 5515 5512 5510 5508 5505 5504 5502 5500 5499 5497 5496 5496 5495 5495 5496 5496 5496
5647 5648 5648 5648 5648 5648 5648 5648 5647 5647 5646 5646 5645 5645 5644 5643 5642 5641 5640 5639 5637 5636 5635 5633 5631 5629 5628 5626 5624 5621 5619 5617 5615 5613 5611 5608 5605 5603 5600 5597 5595 5592 5589 5587 5584 5581 5578 5575 5573 5570 5567 5564 5561 5558 5555 5552 5549 5546 5543 5540 5537 5535 5532 5530 5527 5525 5522 5520 5517 5515 5513 5510 5508 5506 5504 5502 5501 5499 5498 5497 5496 5495 5495 5495 5495
5645 5645 5645 5645 5646 5646 5645 5645 5645 5644 5644 5643 5642 5642 5641 5640 5639 5638 5637 5636 5635 5633 5632 5631 5629 5627 5626 5624 5622 5620 5617 5615 5613 5611 5609 5606 5604 5601 5599 5596 5594 5591 5588 5586 5583 5581 5578 5575 5572 5570 5567 5564 5561 5559 5556 5553 5550 5547 5544 5542 5539 5536 5533 5531 5529 5526 5524 5522 5520 5517 5515 5513 5511 5509 5507 5505 5503 5501 5500 5499 5498 5497 5496 5495 5494
5642 5642 5642 5643 5643 5643 5642 5642 5642 5641 5641 5640 5639 5639 5638 5637 5636 5635 5634 5633 5632 5630 5629 5628 5626 5625 5623 5621 5620 5618 5615 5613 5611 5609 5607 5605 5602 5600 5597 5595 5592 5590 5587 5585 5582 5580 5577 5575 5572 5569 5567 5564 5561 5559 5556 5553 5551 5548 5545 5542 5540 5537 5535 5532 5530 5527 5525 5523 5521 5519 5517 5515 5513 5511 5509 5507 5505 5504 5502 5500 5499 5498 5497 5496 5495
5639 5639 5639 5639 5639 5639 5639 5639 5639 5638 5637 5637 5636 5635 5634 5633 5633 5632 5631 5630 5628 5627 5626 5624 5623 5622 5620 5618 5617 5615 5613 5611 5609 5607 5604 5602 5600 5598 5595 5593 5591 5588 5586 5583 5581 5578 5576 5574 5571 5568 5566 5563 5561 5558 5556 5554 5551 5548 5546 5543 5540 5538 5535 5533 5530 5528 5526 5524 5522 5520 5518 5516 5514 5512 5510 5509 5507 5505 5504 5502 5500 5499 5498 5497 5496
5635 5636 5636 5636 5636 5636 5636 5635 5635 5634 5634 5633 5632 5632 5631 5630 5629 5628 5627 5626 5625 5623 5622 5621 5619 5618 5616 5615 5613 5612 5610 5608 5606 5604 5602 5600 5597 5595 5593 5591 5589 5586 5584 5581 5579 5577 5574 5572 5570 5567 5565 5562 5560 5558 5555 5553 5551 5548 5546 5543 5541 5538 5536 5533 5531 5529 5527 5525 5523 5521 5519 5517 5515 5513 5511 5510 5508 5506 5505 5503 5502 5500 5499 5497 5496